Content
SEND FEEDBACK

Daily
Averages
Monthly
Summary
United States of America

BEAVER ISLAND, MICHIGAN


Home > North America > United States > Michigan
Elevation: 627 feet     Latitude: 45 43N     Longitude: 085 31W

WEATHER
 
SELECT A DAY
Number of Records: 315,603;   Date Range: 9/12/01 - 4/15/14
 
SHARE

PRINT THIS DATA

[ ← Previous Day ]
WEATHER ALMANAC - JANUARY 19, 2014
[ Next Day → ]
[ °C ]   °F
Weather ElementAverageHighLow
Temperature23.1 °F28.2 °F (12:55 pm)14.9 °F (11:35 pm)
Dewpoint18.1 °F24.1 °F (4:55 am)8.6 °F (10:55 pm)
Humidity81.3 %93 % (4:55 am)65 % (3:35 am)
Barometer29.45 in29.61 in (12:35 am)29.35 in (8:35 am)
Wind Speed14.4 mph26.5 mph (7:15 am)
Wind Gust34.5 mph (6:35 am)
Weather ElementAverage
Visibility6.1 mi
Wind DirectionWNW (285.8 °)

Weather ElementTotal
Precipitation---
Heating Degree Days43.5 (Base 65)
Averaged from 71 records on January 19, 2014
WEATHER CONDITIONS BREAKOUT
WIND DIRECTION BREAKOUT
WEATHER BY HOUR - JANUARY 19, 2014
[ °C ]   °F
Local TimeTemperatureDewpointHumidityBarometerVisibilityWind DirectionWind SpeedGust SpeedPrecipitationEventsConditions
12:35 AM23.0 °F16.7 °F77 %29.61 in10.0 miWSW (240°)17.3 mph23.0 mphMostly Cloudy
12:55 AM22.6 °F16.2 °F76 %29.60 in10.0 miSW (230°)17.3 mph23.0 mphMostly Cloudy
1:15 AM23.0 °F16.7 °F77 %29.58 in10.0 miWSW (240°)20.7 mph25.3 mphMostly Cloudy
1:35 AM22.8 °F16.3 °F76 %29.56 in10.0 miWSW (240°)16.1 mph21.9 mphMostly Cloudy
1:55 AM23.0 °F15.6 °F73 %29.55 in10.0 miWSW (240°)21.9 mph26.5 mphScattered Clouds
2:15 AM23.7 °F15.6 °F71 %29.53 in10.0 miSW (230°)19.6 mph29.9 mphMostly Cloudy
2:36 AM23.7 °F16.2 °F73 %29.53 in10.0 miSW (230°)20.7 mph33.4 mphMostly Cloudy
2:55 AM23.9 °F15.1 °F69 %29.51 in10.0 miSW (230°)18.4 mph27.6 mphScattered Clouds
3:15 AM24.4 °F16.2 °F71 %29.49 in10.0 miSW (220°)17.3 mph25.3 mphClear
3:35 AM24.8 °F14.5 °F65 %29.48 in7.0 miSW (220°)20.7 mph28.8 mphMostly Cloudy
3:55 AM23.9 °F18.9 °F81 %29.47 in1.8 miSW (220°)18.4 mph28.8 mphSnowLight Snow
4:15 AM24.1 °F21.7 °F91 %29.45 in0.8 miSW (220°)16.1 mph32.2 mphSnowSnow
4:35 AM25.2 °F23.0 °F91 %29.42 in0.5 miSW (220°)18.4 mph28.8 mphSnowSnow
4:55 AM25.9 °F24.1 °F93 %29.41 in0.5 miSW (230°)19.6 mph28.8 mphSnowSnow
5:15 AM25.7 °F23.5 °F92 %29.40 in1.0 miWSW (240°)21.9 mph33.4 mphSnowLight Snow
5:35 AM25.2 °F22.6 °F90 %29.39 in1.8 miWSW (240°)23.0 mph28.8 mphSnowLight Snow
5:55 AM25.0 °F21.7 °F87 %29.39 in2.5 miWSW (240°)20.7 mph28.8 mphSnowLight Snow
6:15 AM24.8 °F21.6 °F87 %29.38 in2.0 miWSW (240°)23.0 mph29.9 mphSnowLight Snow
6:35 AM24.6 °F21.9 °F89 %29.38 in1.2 miWSW (250°)21.9 mph34.5 mphSnowLight Snow
6:55 AM24.4 °F21.7 °F89 %29.37 in1.5 miWSW (240°)23.0 mph32.2 mphSnowLight Snow
7:15 AM24.6 °F21.9 °F89 %29.36 in2.5 miWSW (240°)26.5 mph32.2 mphSnowLight Snow
7:35 AM24.8 °F22.5 °F91 %29.36 in2.5 miWSW (250°)23.0 mph29.9 mphSnowLight Snow
7:56 AM25.2 °F22.6 °F90 %29.36 in1.8 miWSW (250°)23.0 mph29.9 mphSnowLight Snow
8:15 AM25.2 °F22.6 °F90 %29.36 in2.0 miWSW (250°)21.9 mph27.6 mphOvercast
8:35 AM25.3 °F22.6 °F89 %29.35 in1.8 miWSW (250°)23.0 mph31.1 mphSnowLight Snow
8:56 AM25.7 °F22.6 °F88 %29.35 in2.0 miWest (260°)23.0 mph31.1 mphOvercast
9:15 AM25.7 °F22.6 °F88 %29.36 in2.5 miWest (260°)21.9 mph28.8 mphOvercast
9:35 AM26.2 °F22.8 °F87 %29.36 in4.0 miWest (260°)18.4 mph33.4 mphOvercast
9:55 AM26.2 °F22.8 °F87 %29.36 in4.0 miWest (260°)19.6 mph25.3 mphOvercast
10:15 AM26.6 °F23.0 °F86 %29.37 in7.0 miWest (260°)19.6 mph27.6 mphOvercast
10:35 AM27.1 °F23.0 °F84 %29.37 in7.0 miWest (260°)16.1 mph24.2 mphOvercast
10:55 AM27.5 °F23.0 °F83 %29.37 in7.0 miWest (270°)19.6 mph28.8 mphOvercast
11:15 AM27.5 °F23.5 °F85 %29.39 in5.0 miWest (260°)17.3 mph28.8 mphOvercast
11:35 AM27.5 °F23.7 °F86 %29.38 in3.0 miWSW (250°)21.9 mph28.8 mphOvercast
11:55 AM27.5 °F23.4 °F84 %29.37 in3.0 miWSW (250°)23.0 mph28.8 mphMostly Cloudy
12:16 PM28.0 °F23.7 °F84 %29.38 in4.0 miWest (260°)21.9 mph28.8 mphMostly Cloudy
12:35 PM27.9 °F23.9 °F85 %29.38 in4.0 miWest (260°)19.6 mph29.9 mphOvercast
12:55 PM28.2 °F23.5 °F83 %29.37 in5.0 miWest (280°)13.8 mph29.9 mphSnowLight Snow
1:15 PM28.2 °F23.0 °F81 %29.37 in10.0 miWest (280°)15.0 mph23.0 mphSnowLight Snow
1:35 PM28.0 °F22.6 °F80 %29.39 in7.0 miWest (270°)10.4 mph20.7 mphSnowLight Snow
1:55 PM27.7 °F22.3 °F80 %29.39 in7.0 miWest (280°)11.5 mph19.6 mphSnowLight Snow
2:15 PM27.5 °F22.1 °F80 %29.38 in5.0 miWest (280°)8.1 mphSnowLight Snow
2:35 PM27.3 °F22.3 °F81 %29.40 in5.0 miWNW (300°)10.4 mphSnowLight Snow
2:55 PM26.1 °F20.3 °F79 %29.40 in10.0 miNW (310°)9.2 mphSnowLight Snow
3:15 PM25.7 °F20.5 °F81 %29.41 in7.0 miNNW (340°)5.8 mphSnowLight Snow
3:34 PM25.3 °F20.1 °F81 %29.42 in10.0 miNW (310°)8.1 mphSnowLight Snow
3:55 PM24.6 °F19.0 °F79 %29.44 in10.0 miNorth (350°)9.2 mphSnowLight Snow
4:16 PM23.5 °F18.5 °F81 %29.45 in10.0 miNorth (350°)5.8 mphOvercast
4:35 PM23.0 °F17.4 °F79 %29.45 in10.0 miNorth (360°)9.2 mphSnowLight Snow
4:55 PM22.1 °F16.0 °F77 %29.45 in10.0 miNNW (340°)6.9 mphSnowLight Snow
5:16 PM21.7 °F16.3 °F80 %29.46 in10.0 miNorth (350°)9.2 mphOvercast
5:35 PM21.2 °F15.3 °F78 %29.47 in10.0 miNNW (340°)8.1 mphOvercast
5:55 PM21.0 °F15.3 °F78 %29.49 in10.0 miNNW (330°)5.8 mphSnowLight Snow
6:15 PM20.7 °F15.1 °F79 %29.49 in10.0 miNorth (350°)10.4 mphOvercast
6:35 PM20.1 °F13.6 °F76 %29.50 in10.0 miNNW (340°)8.1 mphOvercast
6:56 PM19.8 °F13.5 °F77 %29.51 in10.0 miNNW (340°)6.9 mphOvercast
7:15 PM19.2 °F13.1 °F77 %29.51 in10.0 miNNW (340°)5.8 mphSnowLight Snow
7:35 PM18.5 °F13.1 °F79 %29.51 in2.5 miNorth (350°)5.8 mphSnowLight Snow
7:55 PM17.6 °F13.6 °F84 %29.53 in2.0 miNorth (350°)5.8 mphSnowLight Snow
8:15 PM17.1 °F13.5 °F86 %29.54 in1.8 miNorth (360°)9.2 mphSnowLight Snow
8:35 PM16.5 °F13.3 °F87 %29.54 in5.0 miNorth (350°)4.6 mphSnowLight Snow
8:55 PM16.7 °F10.2 °F76 %29.54 in7.0 miNNW (340°)9.2 mphSnowLight Snow
9:15 PM16.3 °F10.4 °F77 %29.55 in2.5 miNorth (350°)6.9 mphSnowLight Snow
9:36 PM16.2 °F9.9 °F76 %29.54 in5.0 miNNW (340°)8.1 mphSnowLight Snow
9:55 PM16.3 °F9.5 °F74 %29.55 in7.0 miNNW (330°)6.9 mphSnowLight Snow
10:15 PM16.2 °F9.0 °F73 %29.55 in7.0 miNorth (350°)4.6 mphSnowLight Snow
10:35 PM15.8 °F9.5 °F76 %29.55 in7.0 miNorth (350°)5.8 mphSnowLight Snow
10:55 PM15.8 °F8.6 °F73 %29.56 in10.0 miNorth (350°)5.8 mphOvercast
11:16 PM15.6 °F8.6 °F74 %29.57 in7.0 miNNW (340°)5.8 mphSnowLight Snow
11:35 PM14.9 °F9.5 °F79 %29.58 in7.0 miNNW (340°)5.8 mphSnowLight Snow
11:55 PM14.9 °F8.6 °F76 %29.58 in10.0 miNNW (340°)6.9 mphOvercast
Hourly data recorded from KSJX, located 2.94 miles away from Beaver Island, Michigan







STORIES FROM OUR PARTNERS